Weather History for St. Paul, MN

Change the Weather History Date:

Tuesday, February 18, 2014

  Actual Average Record
Temperature  
Mean Temperature 30 °F -  
Max Temperature 42 °F 30 °F 50 °F (2002)
Min Temperature 17 °F 15 °F -11 °F (2006)
Degree Days  
Heating Degree Days 36    
Moisture  
Dew Point 21 °F    
Average Humidity 73    
Maximum Humidity 92    
Minimum Humidity 51    
Precipitation  
Precipitation 0.00 in - - ()
Sea Level Pressure  
Sea Level Pressure 29.66 in    
Wind  
Wind Speed 6 mph (SSW)    
Max Wind Speed 13 mph    
Max Gust Speed -    
Visibility 10 miles    
Events      
Averages and records for this station are not official NWS values.
T = Trace of Precipitation, MM = Missing Value Source: NWS Daily Summary

Daily Weather History Graph

Daily Weather History Graph

Search for Another Location

Airport:

Trip Planner

Search our weather history database for the weather conditions in past years. The results will help you decide how hot, cold, wet, or windy it might be!

Date:

Astronomy

Feb. 18, 2014 Rise Set
Actual Time 7:08 AM CST 5:44 PM CST
Civil Twilight 6:38 AM CST 6:14 PM CST
Nautical Twilight 6:04 AM CST 6:48 PM CST
Astronomical Twilight 5:30 AM CST 7:22 PM CST
Moon 9:50 PM CST (2/18) 8:30 AM CST (2/18)
Length of Visible Light 11h 36m
Length of Day
10h 36m
Waning Gibbous, 87% of the Moon is Illuminated
Feb 18
Waning Gibbous
Feb 22
Last Quarter
Mar 1
New
Mar 8
First Quarter
Mar 16
Full

Hourly Weather History & Observations

Time (CST) Temp. Windchill Dew Point Humidity Pressure Visibility Wind Dir Wind Speed Gust Speed Precip Events Conditions
12:53 AM 17.1 °F 10.0 °F 15.1 °F 92% 29.80 in - SSE 4.6 mph - N/A   Mostly Cloudy
1:53 AM 19.9 °F 11.1 °F 17.1 °F 89% 29.77 in - SE 6.9 mph - N/A   Clear
2:53 AM 21.9 °F 12.5 °F 19.0 °F 89% 29.73 in - SE 8.1 mph - N/A   Partly Cloudy
3:53 AM 19.0 °F 11.1 °F 16.0 °F 88% 29.68 in - SSE 5.8 mph - N/A   Clear
4:53 AM 17.1 °F 11.7 °F 14.0 °F 88% 29.66 in - ESE 3.5 mph - N/A   Clear
5:53 AM 18.0 °F 11.1 °F 15.1 °F 88% 29.63 in 10.0 mi SSE 4.6 mph - N/A   Clear
6:53 AM 18.0 °F 9.8 °F 14.0 °F 84% 29.61 in - SE 5.8 mph - N/A   Clear
7:53 AM 19.0 °F 13.9 °F 16.0 °F 88% 29.62 in - SE 3.5 mph - N/A   Clear
8:53 AM 21.0 °F - 19.0 °F 92% 29.61 in 10.0 mi Calm Calm - N/A   Clear
9:53 AM 27.0 °F 18.7 °F 19.9 °F 75% 29.61 in 10.0 mi SE 8.1 mph - N/A   Clear
10:53 AM - - - N/A% 29.56 in 10.0 mi North - - N/A   Unknown
11:53 AM 33.1 °F - 23.0 °F 66% 29.59 in - North - - N/A   Unknown
12:53 PM 35.1 °F 32.2 °F 23.0 °F 61% 29.59 in - East 3.5 mph - N/A   Clear
1:53 PM 39.0 °F - 23.0 °F 53% 29.58 in 10.0 mi Calm Calm - N/A   Clear
2:53 PM 39.9 °F - 25.0 °F 55% 29.57 in 10.0 mi Calm Calm - N/A   Clear
3:53 PM 42.1 °F 38.4 °F 25.0 °F 51% 29.60 in 10.0 mi WSW 5.8 mph - N/A   Clear
4:53 PM 41.0 °F 33.9 °F 25.0 °F 53% 29.63 in 10.0 mi NW 12.7 mph - N/A   Mostly Cloudy
5:53 PM 39.0 °F 33.4 °F 26.1 °F 60% 29.65 in 10.0 mi WNW 8.1 mph - N/A   Overcast
6:53 PM 39.0 °F 34.0 °F 26.1 °F 60% 29.68 in - West 6.9 mph - N/A   Mostly Cloudy
7:53 PM 36.0 °F 31.1 °F 26.1 °F 67% 29.71 in 10.0 mi West 5.8 mph - N/A   Clear
8:53 PM 34.0 °F 27.2 °F 25.0 °F 70% 29.74 in - West 8.1 mph - N/A   Clear
9:53 PM 34.0 °F 26.6 °F 24.1 °F 67% 29.76 in - West 9.2 mph - N/A   Clear
10:53 PM 30.0 °F 22.4 °F 21.9 °F 72% 29.76 in - WNW 8.1 mph - N/A   Clear
11:53 PM 28.0 °F 20.0 °F 21.0 °F 75% 29.78 in - WNW 8.1 mph - N/A   Clear